Погода в Королеве Стане

Беларусь     53°59′15″N   27°47′57″E
темп.,
°C
ветер,
м/с
пор.,
м/с
влажн.,
%
обл.,
%
осадки,
мм/ч
давл.,
гПа
погр.,
м
11 апреля, вс
вс1100:00+8ю2275100 0.0 102049
03:00+7ю3880100 0.0 1021223
06:00+7ю3782100 0.0 1022199
09:00+9ююз4107098 0.0 1023352
12:00+13ююз6955100 0.0 1024730
15:00+15ююз6847100 0.0 10241274
18:00+14ю4853100 0.0 1024840
21:00+10ююв4126797 0.0 1026250
12 апреля, пн
пн1200:00+8ююв4126853 0.0 1027264
03:00+6ююв41175100 0.0 1027237
06:00+5юв4117495 0.0 1027227
09:00+8ююв5106493 0.0 1026380
12:00+13ююв694518 0.0 10251226
15:00+15ююв573783 0.0 10231469
18:00+14ююв46420 0.0 10211401
21:00+10юв3561100 0.0 102291
13 апреля, вт
вт1300:00+8ююв386798 0.0 1021146
03:00+6ююв37765 0.0 1021137
06:00+5ю338264 0.0 102148
09:00+9ююв356784 0.0 1021242
12:00+14ю334981 0.0 1020819
15:00+17юв124094 0.0 10191433
18:00+12с2367100 0.0 101887
21:00+8с6988100 0.9 1019356
14 апреля, ср
ср1400:00+7с5991100 0.3 1018349
03:00+7с4895100 2.4 1017353
06:00+7с4797100 0.4 1016313
09:00+6ссв5897100 2.4 1016318
12:00+7ссв4697100 1.9 1016256
15:00+11ссв2384100 2.2 1016373
18:00+9ссв359382 0.6 1015181
21:00+7ссв5996100 0.9 1017272
15 апреля, чт
чт1500:00+7ссв5996100 0.1 1016312
03:00+5с5996100 0.3 1016367
06:00+4с51095100 2.9 1016436
09:00+4ссз5994100 8.0 1016464
12:00+4ссз4795100 0.2 1017474
15:00+4ссз4895100 0.4 1017496
18:00+5с4796100 0.1 1017465
21:00+5св41098100 0.9 1018566